{"data":{"norad_id":56550,"epoch":"2026-05-24T07:23:55.728096Z","epoch_age_seconds":137920,"freshness":"FRESH","line1":"1 56550U 23065AZ  26144.30828389  .00000589  00000+0  30924-4 0  9998","line2":"2 56550  43.0027 156.8157 0001534 268.0468  92.0208 15.27576788168034","mean_motion":15.27576788,"eccentricity":0.0001534,"inclination_deg":43.0027,"raan_deg":156.8157,"arg_perigee_deg":268.0468,"mean_anomaly_deg":92.0208,"bstar":3.0924e-5,"rev_number":16803,"period_min":94.26694692614,"perigee_km":482.0062065175,"apogee_km":484.11122136254,"semimajor_km":6861.19571394,"source":"CELESTRAK","updated_at":"2026-05-25T13:38:18.116617Z"}}